Regional Weather Roundup
Issued by NWS

Home | Current Version | Previous Version | Graphics & Text | Print | Product List | Glossary On
Versions: 1 2 3 4 5 6 7 8 9 10 11 12 13 14 15 16 17 18 19 20 21 22 23 24 25 26 27 28 29 30 31 32 33 34 35 36 37 38 39 40 41 42 43 44 45 46 47 48 49 50
000
ASUS43 KLMK 211210
RWRKY
KENTUCKY REGIONAL WEATHER ROUNDUP
NATIONAL WEATHER SERVICE LOUISVILLE KY
800 AM EDT THU SEP 21 2017

NOTE "FAIR" INDICATES FEW OR NO CLOUDS BELOW 12,000 FEET
WITH NO SIGNIFICANT WEATHER AND/OR OBSTRUCTIONS TO VISIBILITY.

KYZ001>023-026-027-061>063-070>075-211300-
WESTERN AND SOUTH CENTRAL KENTUCKY

CITY           SKY/WX    TMP DP  RH WIND       PRES   REMARKS
PADUCAH        FOG       70  68  93 CALM      30.05R VSB 3/4
HENDERSON      CLEAR     68  67  96 CALM      30.06R FOG
OWENSBORO      PTCLDY    70  69  97 CALM      30.07R FOG
HOPKINSVILLE   CLEAR     70  69  98 CALM      30.06R
BOWLING GREEN  CLEAR     68  67  96 CALM      30.08R FOG
GLASGOW        FOG      N/A N/A N/A CALM      30.10R VSB 1/2
$$

KYZ024-025-028>034-038-045-046-053-211300-
NORTH CENTRAL KENTUCKY

CITY           SKY/WX    TMP DP  RH WIND       PRES   REMARKS
LOUISVILLE/SDF PTCLDY    71  68  90 CALM      30.09R
LOUISVILLE/LOU CLEAR     69  69 100 CALM      30.10R FOG
FORT KNOX      PTCLDY    65  65 100 CALM      30.08R FOG
$$

KYZ035>037-039>044-047>052-055>060-089>105-211300-
NORTHEAST KENTUCKY

CITY           SKY/WX    TMP DP  RH WIND       PRES   REMARKS
LEXINGTON      CLEAR     68  65  90 CALM      30.12R FOG
COVINGTON      PTCLDY    67  67 100 SE3       30.11R FOG
FRANKFORT      CLEAR     65  62  90 CALM      30.10R
$$

KYZ054-064>069-076>088-106>120-211300-
SOUTHEAST KENTUCKY

CITY           SKY/WX    TMP DP  RH WIND       PRES   REMARKS
JACKSON        CLEAR     66  64  93 CALM      30.13R
LONDON         PTCLDY    64  62  93 CALM      30.13R FOG
SOMERSET       FOG       63  63 100 CALM      30.13R VSB 1/4
MIDDLESBORO    FOG       64  64 100 CALM      30.15R VSB 3/4
MONTICELLO     SUNNY     61  61 100 CALM      30.13R FOG
$$





USA.gov is the U.S. government's official web portal to all federal, state and local government web resources and services.